Weather History for Johnstown, PA

Change the Weather History Date:

Friday, February 1, 2013

  Actual Average Record
Temperature  
Mean Temperature 12 °F 25 °F  
Max Temperature 17 °F 32 °F 67 °F (1989)
Min Temperature 6 °F 19 °F -4 °F (1948)
Degree Days  
Heating Degree Days 54 40  
Month to date heating degree days 40  
Since 1 July heating degree days 3857  
Cooling Degree Days 0 0  
Month to date cooling degree days 0  
Year to date cooling degree days 0  
Moisture  
Dew Point 4 °F    
Average Humidity 76    
Maximum Humidity 93    
Minimum Humidity 62    
Precipitation  
Precipitation 0.00 in 0.08 in 1.16 in (1908)
Month to date precipitation 0.08  
Year to date precipitation 2.96  
Sea Level Pressure  
Sea Level Pressure 29.96 in    
Wind  
Wind Speed 14 mph (West)    
Max Wind Speed 23 mph    
Max Gust Speed 32 mph    
Visibility 4 miles    
Events Fog , Snow    
T = Trace of Precipitation, MM = Missing Value Source: NWS Daily Summary

Daily Weather History Graph

Daily Weather History Graph

Search for Another Location

Airport:

Trip Planner

Search our weather history database for the weather conditions in past years. The results will help you decide how hot, cold, wet, or windy it might be!

Date:

Astronomy

Feb. 01, 2013 Rise Set
Actual Time 7:24 AM EST 5:34 PM EST
Civil Twilight 6:55 AM EST 6:02 PM EST
Nautical Twilight 6:22 AM EST 6:35 PM EST
Astronomical Twilight 5:51 AM EST 7:07 PM EST
Moon 11:40 PM EST (2/1) 9:55 AM EST (2/1)
Length of Visible Light 11h 07m
Length of Day
10h 09m
Waning Gibbous, 70% of the Moon is Illuminated
Feb 1
Waning Gibbous
Feb 3
Last Quarter
Feb 10
New
Feb 17
First Quarter
Feb 25
Full

Hourly Weather History & Observations

Time (EST) Temp. Windchill Dew Point Humidity Pressure Visibility Wind Dir Wind Speed Gust Speed Precip Events Conditions
12:07 AM 17.6 °F 6.4 °F 14.0 °F 86% 29.70 in 1.8 mi West 9.2 mph 18.4 mph 0.00 in Snow Light Snow
12:17 AM 17.6 °F 4.3 °F 15.8 °F 93% 29.70 in 3.0 mi West 12.7 mph 20.7 mph 0.00 in Snow Light Snow
12:49 AM 17.6 °F 4.3 °F 12.2 °F 79% 29.68 in 2.5 mi West 12.7 mph - 0.00 in Snow Light Snow
1:54 AM 17.1 °F 1.0 °F 12.0 °F 81% 29.80 in 7.0 mi West 18.4 mph 25.3 mph 0.00 in Snow Light Snow
2:16 AM 17.6 °F 2.7 °F 10.4 °F 73% 29.69 in 9.0 mi West 16.1 mph 21.9 mph 0.00 in   Overcast
3:21 AM 15.8 °F 2.7 °F 12.2 °F 86% 29.70 in 1.8 mi West 11.5 mph - 0.00 in Snow Light Snow
3:28 AM 15.8 °F 3.4 °F 12.2 °F 86% 29.70 in 0.8 mi West 10.4 mph - 0.00 in Snow Light Snow
4:08 AM 14.0 °F -0.8 °F 10.4 °F 86% 29.73 in 1.0 mi WNW 13.8 mph 23.0 mph 0.00 in Snow Light Snow
4:17 AM 14.0 °F -0.8 °F 10.4 °F 86% 29.73 in 1.5 mi WNW 13.8 mph - 0.00 in Snow Light Snow
4:42 AM 12.2 °F -1.8 °F 8.6 °F 85% 29.74 in 1.5 mi West 11.5 mph - 0.00 in Snow Light Snow
4:54 AM 12.9 °F -0.9 °F 10.0 °F 88% 29.86 in 1.2 mi West 11.5 mph 18.4 mph 0.00 in Snow Light Snow
5:03 AM 12.2 °F -3.1 °F 10.4 °F 92% 29.76 in 0.8 mi West 13.8 mph 19.6 mph 0.00 in Snow Light Snow
5:15 AM 12.2 °F -4.8 °F 10.4 °F 92% 29.77 in 0.2 mi WNW 17.3 mph 21.9 mph 0.00 in Fog , Snow Heavy Snow
5:25 AM 12.2 °F -1.8 °F 8.6 °F 85% 29.78 in 1.0 mi West 11.5 mph 21.9 mph 0.00 in Snow Light Snow
5:42 AM 12.2 °F -2.5 °F 8.6 °F 85% 29.79 in 2.0 mi West 12.7 mph 20.7 mph 0.00 in Snow Light Snow
5:51 AM 12.2 °F -1.8 °F 8.6 °F 85% 29.80 in 2.5 mi West 11.5 mph 20.7 mph 0.00 in Snow Light Snow
5:54 AM 12.0 °F -3.4 °F 8.1 °F 84% 29.92 in 2.5 mi West 13.8 mph 20.7 mph 0.00 in Snow Light Snow
6:06 AM 12.2 °F -4.8 °F 6.8 °F 79% 29.80 in 1.8 mi West 17.3 mph 24.2 mph 0.00 in Snow Light Snow
6:18 AM 10.4 °F -9.5 °F 6.8 °F 85% 29.81 in 1.2 mi WNW 23.0 mph 31.1 mph 0.00 in Snow Light Snow
6:38 AM 10.4 °F -8.6 °F 5.0 °F 79% 29.83 in 2.5 mi WNW 20.7 mph 28.8 mph 0.00 in Snow Light Snow
6:54 AM 10.9 °F -5.4 °F 6.1 °F 81% 29.96 in 1.0 mi West 15.0 mph 21.9 mph 0.00 in Snow Light Snow
7:15 AM 10.4 °F -6.0 °F 6.8 °F 85% 29.85 in 1.2 mi West 15.0 mph 20.7 mph 0.00 in Snow Light Snow
7:21 AM 10.4 °F -6.0 °F 6.8 °F 85% 29.86 in 2.0 mi West 15.0 mph - 0.00 in Snow Light Snow
7:27 AM 10.4 °F -6.0 °F 5.0 °F 79% 29.86 in 1.5 mi West 15.0 mph 27.6 mph 0.00 in Snow Light Snow
7:43 AM 10.4 °F -6.6 °F 5.0 °F 79% 29.87 in 1.0 mi West 16.1 mph 24.2 mph 0.00 in Snow Light Snow
7:54 AM 10.0 °F -5.9 °F 3.9 °F 76% 30.00 in 1.2 mi West 13.8 mph 31.1 mph 0.00 in Snow Light Snow
8:07 AM 8.6 °F -8.3 °F 5.0 °F 85% 29.88 in 0.8 mi West 15.0 mph 23.0 mph 0.00 in Snow Light Snow
8:20 AM 8.6 °F -8.3 °F 5.0 °F 85% 29.89 in 0.8 mi West 15.0 mph 26.5 mph 0.00 in Snow Light Snow
8:30 AM 8.6 °F -9.5 °F 3.2 °F 79% 29.90 in 1.2 mi West 17.3 mph 24.2 mph 0.00 in Snow Light Snow
8:37 AM 8.6 °F -8.3 °F 3.2 °F 79% 29.90 in 1.0 mi West 15.0 mph 28.8 mph 0.00 in Snow Light Snow
9:31 AM 10.4 °F -4.8 °F 3.2 °F 73% 29.93 in 2.0 mi West 12.7 mph 24.2 mph 0.00 in Snow Light Snow
9:51 AM 10.4 °F -6.6 °F 3.2 °F 73% 29.94 in 1.5 mi West 16.1 mph 24.2 mph 0.00 in Snow Light Snow
9:54 AM 10.0 °F -8.1 °F 3.9 °F 76% 30.07 in 1.2 mi West 18.4 mph 29.9 mph 0.00 in Snow Light Snow
10:12 AM 10.4 °F -6.0 °F 3.2 °F 73% 29.95 in 3.0 mi West 15.0 mph 26.5 mph 0.00 in Snow Light Snow
10:28 AM 10.4 °F -9.1 °F 3.2 °F 73% 29.96 in 2.0 mi West 21.9 mph 28.8 mph 0.00 in Snow Light Snow
10:35 AM 10.4 °F -5.4 °F 3.2 °F 73% 29.96 in 1.2 mi West 13.8 mph 31.1 mph 0.00 in Snow Light Snow
10:54 AM 10.0 °F -8.6 °F 3.0 °F 73% 30.09 in 1.5 mi West 19.6 mph 31.1 mph 0.00 in Snow Light Snow
11:54 AM 10.0 °F -5.9 °F 3.0 °F 73% 30.11 in 1.5 mi West 13.8 mph 31.1 mph 0.00 in Snow Light Snow
1:16 PM 10.4 °F -8.2 °F 3.2 °F 73% 30.01 in 1.2 mi West 19.6 mph 25.3 mph 0.00 in Snow Light Snow
1:32 PM 10.4 °F -6.6 °F 1.4 °F 67% 30.01 in 2.5 mi West 16.1 mph 27.6 mph 0.00 in Snow Light Snow
1:40 PM 10.4 °F -7.2 °F 1.4 °F 67% 30.01 in 3.0 mi West 17.3 mph 28.8 mph 0.00 in Snow Light Snow
1:44 PM 10.4 °F -7.2 °F 1.4 °F 67% 30.01 in 2.5 mi West 17.3 mph 28.8 mph 0.00 in Snow Light Snow
1:54 PM 10.9 °F -6.5 °F 1.9 °F 67% 30.14 in 2.0 mi West 17.3 mph 32.2 mph 0.00 in   Overcast
2:10 PM 10.4 °F -9.5 °F 1.4 °F 67% 30.01 in 1.8 mi West 23.0 mph 31.1 mph 0.00 in   Overcast
2:20 PM 10.4 °F -7.2 °F 1.4 °F 67% 30.02 in 3.0 mi West 17.3 mph 28.8 mph 0.00 in Snow Light Snow
2:41 PM 10.4 °F -7.2 °F 1.4 °F 67% 30.03 in 2.0 mi West 17.3 mph 28.8 mph 0.00 in Snow Light Snow
2:54 PM 10.0 °F -9.5 °F 1.9 °F 70% 30.16 in 1.8 mi West 21.9 mph 31.1 mph 0.00 in Snow Light Snow
3:11 PM 10.4 °F -5.4 °F 1.4 °F 67% 30.04 in 2.5 mi West 13.8 mph 29.9 mph 0.00 in Snow Light Snow
3:15 PM 10.4 °F -9.1 °F 1.4 °F 67% 30.04 in 3.0 mi West 21.9 mph 29.9 mph 0.00 in Snow Light Snow
3:54 PM 10.0 °F -5.9 °F 1.0 °F 67% 30.19 in 6.0 mi West 13.8 mph 27.6 mph 0.00 in   Mostly Cloudy
4:49 PM 10.4 °F -8.6 °F -0.4 °F 62% 30.07 in 10.0 mi West 20.7 mph 27.6 mph 0.00 in   Overcast
5:39 PM 8.6 °F -8.9 °F -0.4 °F 67% 30.08 in 10.0 mi West 16.1 mph 28.8 mph N/A   Mostly Cloudy
5:54 PM 9.0 °F -8.5 °F -0.9 °F 64% 30.23 in 10.0 mi West 16.1 mph 27.6 mph N/A   Partly Cloudy
6:20 PM 8.6 °F -6.3 °F -0.4 °F 67% 30.10 in 10.0 mi West 11.5 mph - 0.00 in   Mostly Cloudy
6:49 PM 8.6 °F -9.5 °F -0.4 °F 67% 30.11 in 10.0 mi West 17.3 mph 27.6 mph 0.00 in   Scattered Clouds
6:54 PM 8.1 °F -10.2 °F -0.9 °F 67% 30.26 in 10.0 mi West 17.3 mph 27.6 mph 0.00 in   Partly Cloudy
7:54 PM 8.1 °F -7.7 °F -2.0 °F 64% 30.29 in 10.0 mi WSW 12.7 mph 26.5 mph N/A   Partly Cloudy
8:46 PM 6.8 °F -10.7 °F -0.4 °F 72% 30.15 in 10.0 mi West 15.0 mph - N/A   Mostly Cloudy
8:54 PM 7.0 °F -11.6 °F -0.9 °F 70% 30.30 in 10.0 mi West 17.3 mph 26.5 mph N/A   Mostly Cloudy
9:07 PM 6.8 °F -11.8 °F -0.4 °F 72% 30.15 in 10.0 mi West 17.3 mph 24.2 mph N/A   Scattered Clouds
9:54 PM 7.0 °F -10.4 °F -0.9 °F 70% 30.30 in 10.0 mi West 15.0 mph - N/A   Partly Cloudy
10:23 PM 6.8 °F -10.0 °F -0.4 °F 72% 30.15 in 10.0 mi West 13.8 mph - N/A   Mostly Cloudy
10:54 PM 6.1 °F -9.5 °F -0.9 °F 73% 30.31 in 10.0 mi West 11.5 mph 21.9 mph N/A   Overcast
11:54 PM 6.1 °F -9.5 °F -0.9 °F 73% 30.31 in 10.0 mi West 11.5 mph - 0.00 in   Overcast